GFSWCAN_prec_precacc_336.txt.gz
Total_Precipitation_Accumulation
2.91 2.69 2.73 2.89 2.77 2.66 2.55 2.71 2.81 2.51 2.28 1.73 1.63 1.41 1.26 1.27 1.57 1.41 1.24 1.53 2.09 2.67 1.79 1.06 0.99 1.06 0.87 0.94 1.58 1.21 0.85 0.76 0.81 1.18 0.96 0.57 0.55 0.40 0.33 0.29 0.21 0.27 0.47 0.61 0.70 1.04 0.95 0.26 0.13 0.36 0.49 0.26 0.17 0.14
3.08 3.15 3.19 3.37 3.32 3.32 3.20 2.80 2.67 2.48 2.13 1.71 1.74 1.70 1.78 1.69 1.78 1.71 1.42 1.23 1.42 2.23 1.69 0.74 0.65 0.64 0.66 0.78 1.31 1.28 0.99 0.80 0.86 1.16 0.99 0.67 0.51 0.39 0.41 0.54 0.28 0.37 0.47 0.49 0.59 0.76 0.74 0.49 0.56 0.53 0.42 0.31 0.23 0.20
2.81 3.05 3.04 2.84 2.67 2.43 2.43 2.69 2.94 2.34 1.71 1.43 1.54 1.58 1.37 1.25 1.45 1.79 1.32 1.29 1.44 1.82 1.33 0.76 0.53 0.38 0.27 0.46 0.98 1.62 1.28 1.22 1.31 1.18 1.25 0.90 0.76 0.53 0.38 0.40 0.41 0.36 0.38 0.49 0.53 0.56 0.42 0.48 0.36 0.39 0.42 0.43 0.27 0.12
2.51 2.60 2.45 2.16 2.15 1.97 1.53 1.35 1.54 1.79 1.25 1.11 1.24 1.26 1.07 0.93 1.11 1.35 0.74 0.79 0.97 1.07 0.97 0.65 0.30 0.28 0.29 0.38 0.64 1.12 1.42 1.15 1.28 1.32 2.18 1.83 1.24 0.60 0.53 0.47 0.31 0.36 0.40 0.57 0.78 0.64 0.58 0.61 0.46 0.40 0.34 0.20 0.09 0.06
1.92 2.03 1.96 1.71 1.51 1.56 1.66 1.34 0.95 1.14 1.36 1.15 1.10 0.94 0.78 0.99 1.11 0.87 0.53 0.87 1.07 1.47 1.63 0.63 0.29 0.23 0.12 0.31 0.59 0.86 1.44 1.50 1.71 2.12 2.21 1.91 1.37 1.10 0.99 0.88 1.06 0.87 0.87 0.89 0.99 0.88 0.86 0.83 0.72 0.54 0.35 0.29 0.25 0.19
1.81 1.59 1.75 1.63 1.52 1.25 1.14 1.11 1.16 1.10 0.96 0.90 0.89 0.78 0.87 1.24 1.56 0.93 0.86 0.76 0.78 1.12 2.25 0.94 0.34 0.12 0.08 0.33 0.57 0.73 0.92 1.33 1.98 2.23 1.98 1.87 1.61 1.63 1.87 1.32 1.18 0.91 0.93 1.11 1.17 1.17 1.16 1.17 0.87 0.78 0.68 0.60 0.57 0.45
2.88 2.21 1.83 1.61 1.42 1.31 1.09 1.06 1.28 1.15 1.06 1.02 1.13 1.10 0.96 1.33 1.20 0.98 0.72 1.12 1.27 1.59 1.95 0.98 0.49 0.16 0.11 0.50 0.87 0.92 0.81 1.56 2.12 2.55 2.05 1.49 1.29 1.42 2.01 1.41 1.09 0.91 0.99 1.13 1.10 0.80 0.89 0.84 1.14 1.08 1.03 1.16 0.99 0.89
2.96 3.12 3.05 2.25 1.72 1.52 1.30 1.28 1.35 1.37 1.22 1.40 1.55 1.65 1.69 1.86 1.65 1.07 0.91 1.09 1.23 2.04 2.06 1.55 0.52 0.21 0.19 0.77 1.33 1.21 1.38 1.59 1.68 1.91 1.59 1.16 1.10 1.36 2.02 1.56 1.01 0.82 0.64 0.60 0.76 0.80 1.13 1.09 0.89 0.86 0.81 0.75 0.61 0.62
2.72 2.66 3.28 3.47 2.87 2.38 1.99 1.64 1.47 1.73 1.83 1.94 2.13 2.07 2.08 1.47 0.72 0.50 0.73 1.13 1.34 2.02 2.81 1.64 0.73 0.48 0.27 0.71 1.06 1.34 1.20 1.43 1.19 1.09 1.06 0.91 1.02 1.52 1.63 1.12 0.85 0.79 0.69 0.88 0.73 0.63 0.60 0.52 0.53 0.49 0.44 0.40 0.38 0.41
2.58 3.09 3.13 3.27 3.64 3.32 3.00 2.41 2.31 2.43 2.42 2.66 2.34 1.87 1.56 0.81 0.78 1.11 1.69 2.16 2.93 2.34 1.84 1.41 0.43 0.57 0.42 0.60 1.10 1.63 1.96 1.53 1.27 0.97 0.77 1.22 1.69 1.72 1.37 1.04 0.90 0.78 0.74 0.65 0.53 0.42 0.32 0.30 0.30 0.28 0.26 0.27 0.31 0.33
2.16 2.59 3.28 3.42 3.60 4.04 4.22 3.76 3.49 3.44 3.79 3.00 2.45 1.80 1.56 1.57 1.73 1.99 2.02 1.87 1.59 1.82 1.04 0.55 0.27 0.55 0.51 1.20 1.52 1.79 2.20 1.54 1.34 0.94 0.99 1.24 1.48 1.31 0.91 0.66 0.59 0.51 0.38 0.29 0.31 0.32 0.26 0.27 0.24 0.20 0.15 0.11 0.13 0.14
2.10 2.36 2.66 3.26 3.69 3.98 5.02 5.18 5.02 4.60 3.40 2.00 1.77 2.24 2.44 2.39 2.38 1.92 1.49 1.04 1.25 0.94 0.69 0.57 0.39 0.42 0.52 0.87 1.80 2.19 1.88 1.69 1.32 0.86 1.19 1.08 1.30 0.84 0.49 0.50 0.41 0.22 0.17 0.14 0.12 0.15 0.10 0.10 0.09 0.13 0.13 0.09 0.06 0.06
2.02 2.18 2.51 2.79 3.25 3.85 4.81 6.55 6.91 5.65 3.57 3.13 4.27 4.40 3.11 2.56 1.89 1.33 0.86 0.97 0.98 0.70 0.73 0.80 0.72 0.57 0.82 1.19 1.95 2.01 1.88 1.41 0.82 0.96 0.88 0.91 0.78 0.46 0.34 0.25 0.16 0.12 0.09 0.08 0.07 0.06 0.06 0.07 0.07 0.12 0.16 0.09 0.08 0.08
1.64 1.81 2.29 2.55 2.74 3.70 4.93 6.04 7.59 6.72 4.83 5.73 5.59 4.53 2.16 1.53 0.70 0.85 0.72 0.64 0.67 0.69 0.75 0.86 0.99 0.98 1.03 1.63 1.74 1.61 1.40 1.25 1.11 0.77 0.80 0.80 0.50 0.35 0.26 0.21 0.20 0.25 0.33 0.33 0.24 0.17 0.15 0.14 0.16 0.11 0.11 0.13 0.15 0.14
1.66 1.96 2.35 2.50 2.53 3.20 4.19 5.36 6.07 5.12 5.74 5.96 4.37 2.34 1.04 0.46 0.29 0.43 0.32 0.31 0.42 0.49 0.61 0.79 1.00 0.92 1.08 1.49 1.14 1.01 1.13 0.83 0.60 0.76 0.87 0.59 0.41 0.28 0.28 0.31 0.33 0.35 0.47 0.58 0.59 0.56 0.51 0.44 0.42 0.32 0.16 0.14 0.19 0.18
2.49 3.37 2.98 2.33 2.50 3.17 3.97 5.77 6.84 6.73 7.73 5.47 3.55 1.38 0.41 0.22 0.12 0.16 0.23 0.31 0.40 0.59 0.69 0.88 1.03 1.29 1.20 1.06 1.08 0.82 0.75 0.66 0.76 0.83 0.76 0.55 0.49 0.42 0.39 0.32 0.28 0.26 0.23 0.23 0.21 0.22 0.25 0.27 0.32 0.33 0.25 0.20 0.24 0.27
4.20 3.81 2.38 2.01 2.62 3.45 4.78 6.92 8.79 9.63 7.67 5.20 1.94 0.40 0.16 0.17 0.20 0.18 0.24 0.27 0.29 0.55 0.73 1.04 1.50 1.08 1.12 1.29 0.91 0.79 1.05 0.91 0.64 0.38 0.39 0.45 0.60 0.59 0.56 0.44 0.36 0.29 0.24 0.19 0.18 0.15 0.16 0.13 0.14 0.14 0.12 0.10 0.14 0.26
3.79 2.66 2.15 2.40 3.36 4.83 6.03 7.03 7.56 7.02 5.46 2.54 0.57 0.19 0.07 0.07 0.08 0.08 0.12 0.17 0.28 0.41 0.54 0.91 1.02 1.35 1.19 1.06 0.97 0.89 0.70 0.39 0.25 0.20 0.27 0.33 0.46 0.54 0.46 0.38 0.30 0.26 0.27 0.29 0.31 0.27 0.26 0.22 0.21 0.16 0.12 0.10 0.12 0.09
2.69 2.14 2.17 2.88 3.96 5.58 6.75 6.75 5.24 4.22 2.16 0.72 0.22 0.15 0.10 0.05 0.06 0.06 0.08 0.14 0.22 0.37 0.91 1.43 1.70 1.27 0.66 0.69 0.70 0.42 0.33 0.32 0.28 0.11 0.15 0.24 0.37 0.48 0.47 0.40 0.28 0.24 0.25 0.29 0.29 0.38 0.37 0.27 0.26 0.23 0.22 0.26 0.32 0.19
3.14 2.85 2.60 3.27 3.84 5.47 6.05 5.57 3.98 2.16 1.08 0.52 0.28 0.23 0.22 0.19 0.14 0.11 0.12 0.24 0.62 1.25 1.93 1.84 1.13 0.82 0.84 0.59 0.60 0.59 0.44 0.38 0.34 0.27 0.10 0.14 0.20 0.31 0.36 0.38 0.34 0.28 0.30 0.28 0.27 0.36 0.45 0.34 0.24 0.25 0.31 0.48 0.55 0.31
4.07 3.63 4.08 5.37 6.26 5.83 5.17 3.55 2.48 1.56 0.89 0.57 0.60 0.38 0.47 0.46 0.43 0.48 0.63 0.80 1.68 2.23 1.44 0.73 0.56 0.45 0.54 0.52 0.44 0.42 0.29 0.33 0.41 0.51 0.53 0.48 0.24 0.21 0.25 0.26 0.30 0.35 0.44 0.46 0.44 0.35 0.39 0.37 0.34 0.36 0.45 0.38 0.36 0.41
5.02 4.51 6.31 6.20 6.86 6.57 5.11 2.80 1.64 1.08 0.70 0.81 0.74 0.62 0.76 0.77 0.76 0.80 0.94 1.64 1.82 1.27 0.78 0.61 0.45 0.46 0.35 0.25 0.20 0.21 0.20 0.16 0.16 0.22 0.27 0.33 0.27 0.24 0.20 0.19 0.37 0.44 0.40 0.47 0.54 0.55 0.45 0.44 0.57 0.72 0.55 0.47 0.40 0.30
4.45 3.93 5.12 5.20 4.89 4.38 3.52 1.95 1.48 1.19 1.02 1.06 0.90 0.86 0.96 0.83 0.87 0.97 1.37 1.18 0.94 0.81 0.61 0.51 0.44 0.35 0.28 0.10 0.09 0.08 0.10 0.16 0.16 0.17 0.21 0.16 0.15 0.16 0.22 0.19 0.24 0.42 0.45 0.35 0.39 0.57 0.59 0.48 0.58 0.67 0.49 0.32 0.24 0.25
4.21 5.36 5.35 4.94 3.68 2.78 2.20 1.76 1.22 0.84 0.91 0.85 0.93 0.88 0.78 0.80 0.99 1.16 0.88 0.60 0.76 0.64 0.44 0.41 0.35 0.25 0.16 0.13 0.14 0.16 0.19 0.22 0.21 0.15 0.21 0.31 0.24 0.15 0.16 0.17 0.20 0.30 0.37 0.44 0.49 0.55 0.41 0.39 0.47 0.39 0.31 0.37 0.32 0.34
6.22 5.91 4.16 3.54 2.46 1.38 0.89 0.72 0.59 0.53 0.64 0.56 0.63 0.72 0.68 0.78 1.02 0.87 0.52 0.46 0.50 0.61 0.54 0.41 0.37 0.40 0.44 0.34 0.25 0.21 0.21 0.41 0.50 0.47 0.28 0.35 0.38 0.35 0.27 0.18 0.14 0.18 0.20 0.61 0.54 0.42 0.36 0.43 0.48 0.42 0.41 0.54 0.77 0.93
4.97 2.83 2.12 1.24 0.71 0.31 0.30 0.35 0.38 0.40 0.47 0.60 0.65 0.60 0.63 0.74 0.83 0.72 0.47 0.51 0.56 0.74 0.81 0.71 0.62 0.48 0.37 0.50 0.58 0.52 0.47 0.53 0.70 0.68 0.38 0.40 0.59 0.83 0.71 0.49 0.35 0.26 0.24 0.62 0.92 0.85 0.62 0.48 0.58 0.54 0.54 0.56 0.79 0.94
2.76 1.45 0.83 0.30 0.16 0.13 0.20 0.27 0.30 0.39 0.53 0.54 0.49 0.46 0.59 0.92 0.67 0.38 0.37 0.53 0.78 0.85 0.93 0.91 0.76 0.69 0.62 0.52 0.52 0.57 0.63 0.73 0.92 0.84 0.59 0.54 0.53 0.57 0.94 1.19 1.05 0.72 0.93 0.94 0.93 1.04 1.09 0.84 0.71 0.62 0.64 0.53 0.62 0.82
0.92 0.36 0.40 0.32 0.23 0.17 0.22 0.33 0.41 0.40 0.33 0.24 0.24 0.31 0.40 0.36 0.30 0.33 0.46 0.56 0.72 0.77 0.81 0.76 0.74 0.72 0.69 0.64 0.63 0.65 0.65 0.64 0.62 0.59 0.58 0.58 0.53 0.48 0.57 0.81 1.04 1.25 1.38 1.27 1.57 1.48 1.21 1.21 1.05 0.88 0.76 0.70 0.56 0.58
0.39 0.27 0.19 0.24 0.26 0.33 0.37 0.34 0.30 0.26 0.21 0.20 0.22 0.26 0.29 0.28 0.37 0.44 0.49 0.52 0.61 0.66 0.68 0.64 0.61 0.59 0.61 0.64 0.65 0.68 0.73 0.79 0.86 0.75 0.50 0.44 0.43 0.51 0.64 0.89 1.01 0.94 0.92 0.88 0.80 1.08 1.34 1.74 1.76 1.57 1.15 0.94 0.78 0.76
0.35 0.28 0.28 0.28 0.24 0.25 0.21 0.22 0.21 0.22 0.19 0.25 0.30 0.31 0.32 0.41 0.51 0.52 0.54 0.59 0.59 0.60 0.67 0.73 0.71 0.65 0.62 0.62 0.63 0.59 0.62 0.72 1.06 1.48 1.54 1.01 0.84 0.84 0.97 1.13 1.06 0.89 0.90 0.91 0.83 0.76 0.82 0.90 0.84 0.84 0.86 0.86 0.89 0.91
0.32 0.30 0.34 0.29 0.29 0.27 0.30 0.35 0.40 0.35 0.36 0.38 0.38 0.36 0.39 0.46 0.57 0.57 0.51 0.54 0.52 0.52 0.61 0.71 0.65 0.66 0.73 0.75 0.79 0.81 0.68 0.56 0.68 0.95 1.28 1.43 1.29 1.25 1.32 1.36 1.19 1.13 1.09 1.03 0.95 0.89 0.84 0.77 0.73 0.76 0.77 0.76 0.75 0.81
0.41 0.44 0.34 0.32 0.34 0.38 0.45 0.44 0.44 0.45 0.48 0.48 0.46 0.46 0.51 0.56 0.64 0.56 0.43 0.47 0.47 0.52 0.62 0.67 0.69 0.67 0.70 0.79 0.81 0.94 1.16 1.02 0.91 1.09 1.36 1.60 1.66 1.65 1.79 1.34 1.19 1.19 1.14 1.08 1.05 1.04 0.99 1.01 0.98 0.98 0.95 0.87 0.83 0.78
0.58 0.58 0.54 0.50 0.46 0.45 0.41 0.44 0.47 0.46 0.42 0.40 0.44 0.43 0.44 0.44 0.44 0.35 0.35 0.45 0.53 0.62 0.64 0.64 0.68 0.70 0.70 0.70 0.69 0.70 0.79 0.90 1.04 1.24 1.41 1.55 1.72 2.01 1.79 1.22 1.14 1.12 1.12 1.11 1.12 1.15 1.14 1.11 1.04 1.01 0.99 0.95 0.89 0.83

GFSWCAN_prec_precacc_339.txt.gz
Total_Precipitation_Accumulation
2.92 2.70 2.74 2.90 2.78 2.66 2.56 2.72 2.82 2.51 2.28 1.74 1.63 1.41 1.27 1.27 1.58 1.44 1.30 1.60 2.18 2.82 1.95 1.13 1.04 1.11 0.92 0.99 1.64 1.26 0.89 0.78 0.84 1.23 1.01 0.61 0.58 0.43 0.36 0.33 0.25 0.30 0.50 0.64 0.74 1.09 1.01 0.27 0.13 0.37 0.50 0.26 0.17 0.14
3.08 3.15 3.19 3.37 3.32 3.32 3.20 2.80 2.68 2.49 2.13 1.72 1.74 1.70 1.78 1.70 1.78 1.71 1.50 1.40 1.60 2.48 1.96 0.86 0.75 0.73 0.75 0.87 1.39 1.35 1.06 0.86 0.92 1.21 1.04 0.72 0.56 0.43 0.45 0.58 0.30 0.39 0.48 0.51 0.61 0.79 0.75 0.49 0.56 0.53 0.42 0.31 0.23 0.20
2.81 3.05 3.04 2.84 2.67 2.43 2.43 2.69 2.94 2.34 1.71 1.43 1.54 1.58 1.37 1.25 1.45 1.79 1.36 1.37 1.50 1.95 1.47 0.85 0.61 0.44 0.31 0.53 1.05 1.69 1.34 1.28 1.37 1.23 1.29 0.94 0.79 0.57 0.40 0.43 0.42 0.37 0.38 0.49 0.53 0.56 0.42 0.48 0.36 0.39 0.42 0.43 0.27 0.12
2.51 2.60 2.45 2.16 2.15 1.97 1.53 1.35 1.54 1.79 1.25 1.11 1.24 1.26 1.07 0.93 1.11 1.35 0.74 0.80 0.97 1.09 1.02 0.71 0.33 0.30 0.30 0.39 0.66 1.15 1.44 1.17 1.29 1.32 2.18 1.84 1.25 0.61 0.54 0.48 0.32 0.36 0.40 0.58 0.78 0.64 0.58 0.61 0.46 0.40 0.34 0.20 0.09 0.06
1.92 2.03 1.96 1.71 1.51 1.56 1.66 1.34 0.95 1.14 1.36 1.15 1.10 0.94 0.78 0.99 1.11 0.87 0.53 0.87 1.07 1.48 1.65 0.64 0.30 0.24 0.13 0.31 0.59 0.86 1.44 1.50 1.71 2.12 2.21 1.91 1.37 1.10 0.99 0.88 1.07 0.88 0.88 0.90 1.00 0.88 0.87 0.83 0.72 0.54 0.35 0.29 0.26 0.20
1.81 1.59 1.75 1.63 1.52 1.25 1.14 1.11 1.16 1.10 0.96 0.90 0.89 0.78 0.87 1.24 1.56 0.93 0.86 0.76 0.78 1.12 2.25 0.94 0.34 0.12 0.08 0.33 0.57 0.73 0.92 1.33 1.98 2.23 1.98 1.87 1.61 1.63 1.87 1.33 1.19 0.92 0.93 1.11 1.18 1.17 1.17 1.18 0.87 0.78 0.68 0.61 0.57 0.45
2.88 2.21 1.83 1.61 1.42 1.31 1.09 1.06 1.28 1.15 1.06 1.02 1.13 1.10 0.96 1.33 1.20 0.98 0.72 1.12 1.27 1.59 1.95 0.98 0.49 0.16 0.11 0.50 0.87 0.92 0.81 1.56 2.12 2.55 2.05 1.49 1.29 1.42 2.01 1.41 1.09 0.92 0.99 1.14 1.10 0.80 0.90 0.84 1.14 1.08 1.03 1.16 1.00 0.89
2.96 3.12 3.05 2.25 1.72 1.52 1.30 1.28 1.35 1.37 1.22 1.40 1.55 1.65 1.69 1.86 1.65 1.07 0.91 1.09 1.23 2.04 2.06 1.55 0.52 0.21 0.19 0.77 1.33 1.21 1.38 1.59 1.68 1.91 1.59 1.16 1.10 1.36 2.02 1.56 1.01 0.82 0.64 0.60 0.76 0.80 1.14 1.09 0.89 0.86 0.81 0.75 0.61 0.62
2.72 2.66 3.28 3.47 2.87 2.38 1.99 1.64 1.47 1.73 1.83 1.94 2.13 2.07 2.08 1.47 0.72 0.50 0.73 1.13 1.34 2.02 2.81 1.64 0.73 0.48 0.27 0.71 1.06 1.34 1.20 1.43 1.19 1.09 1.06 0.91 1.02 1.52 1.63 1.12 0.85 0.79 0.69 0.88 0.73 0.63 0.60 0.52 0.53 0.49 0.44 0.41 0.38 0.42
2.58 3.09 3.13 3.27 3.64 3.32 3.00 2.41 2.31 2.43 2.42 2.66 2.34 1.87 1.56 0.81 0.78 1.11 1.69 2.16 2.93 2.34 1.84 1.41 0.43 0.57 0.42 0.60 1.10 1.63 1.96 1.53 1.27 0.97 0.77 1.22 1.69 1.72 1.37 1.04 0.90 0.78 0.74 0.65 0.54 0.43 0.33 0.30 0.31 0.28 0.26 0.27 0.31 0.33
2.16 2.59 3.28 3.42 3.60 4.04 4.22 3.76 3.49 3.44 3.79 3.00 2.45 1.80 1.56 1.57 1.73 1.99 2.02 1.87 1.59 1.82 1.04 0.55 0.27 0.55 0.51 1.20 1.52 1.79 2.20 1.54 1.34 0.94 0.99 1.24 1.48 1.32 0.92 0.66 0.59 0.51 0.38 0.29 0.31 0.32 0.27 0.27 0.25 0.20 0.16 0.11 0.13 0.14
2.10 2.36 2.66 3.26 3.69 3.98 5.02 5.18 5.02 4.60 3.40 2.00 1.77 2.24 2.44 2.39 2.38 1.92 1.49 1.04 1.25 0.94 0.69 0.57 0.39 0.42 0.52 0.87 1.80 2.19 1.88 1.69 1.32 0.86 1.19 1.08 1.31 0.85 0.49 0.50 0.41 0.22 0.17 0.14 0.12 0.15 0.10 0.10 0.10 0.13 0.13 0.10 0.06 0.06
2.02 2.18 2.51 2.79 3.25 3.85 4.81 6.55 6.91 5.65 3.57 3.13 4.27 4.40 3.11 2.56 1.89 1.33 0.86 0.97 0.98 0.70 0.73 0.80 0.72 0.57 0.82 1.19 1.95 2.01 1.88 1.41 0.82 0.96 0.88 0.91 0.78 0.46 0.34 0.25 0.16 0.12 0.09 0.08 0.07 0.06 0.06 0.07 0.07 0.12 0.16 0.09 0.08 0.08
1.64 1.81 2.29 2.55 2.74 3.70 4.93 6.04 7.59 6.72 4.83 5.73 5.59 4.53 2.16 1.53 0.70 0.85 0.72 0.64 0.67 0.69 0.75 0.86 0.99 0.98 1.03 1.63 1.74 1.61 1.40 1.25 1.11 0.77 0.80 0.80 0.50 0.35 0.26 0.21 0.20 0.25 0.33 0.33 0.24 0.17 0.15 0.14 0.16 0.11 0.11 0.13 0.15 0.14
1.66 1.96 2.35 2.50 2.53 3.20 4.19 5.36 6.07 5.12 5.74 5.96 4.37 2.34 1.04 0.46 0.29 0.43 0.32 0.32 0.42 0.50 0.62 0.79 1.00 0.92 1.08 1.49 1.14 1.01 1.13 0.83 0.60 0.76 0.87 0.60 0.41 0.28 0.28 0.31 0.33 0.35 0.47 0.58 0.59 0.56 0.52 0.44 0.42 0.33 0.16 0.14 0.19 0.18
2.49 3.37 2.98 2.33 2.50 3.17 3.97 5.77 6.84 6.73 7.73 5.47 3.55 1.38 0.41 0.22 0.12 0.16 0.23 0.31 0.40 0.60 0.69 0.88 1.03 1.29 1.20 1.06 1.08 0.82 0.75 0.66 0.76 0.83 0.76 0.55 0.49 0.42 0.39 0.32 0.28 0.26 0.23 0.23 0.21 0.22 0.25 0.27 0.33 0.33 0.25 0.20 0.24 0.27
4.20 3.81 2.38 2.01 2.62 3.45 4.78 6.92 8.79 9.63 7.67 5.20 1.94 0.40 0.16 0.17 0.20 0.18 0.24 0.27 0.29 0.55 0.73 1.04 1.50 1.08 1.12 1.29 0.91 0.79 1.05 0.91 0.64 0.38 0.39 0.45 0.60 0.59 0.56 0.44 0.36 0.29 0.24 0.19 0.18 0.15 0.16 0.13 0.14 0.14 0.12 0.10 0.14 0.26
3.79 2.66 2.15 2.40 3.36 4.83 6.03 7.03 7.56 7.02 5.46 2.54 0.57 0.19 0.07 0.07 0.08 0.08 0.12 0.17 0.28 0.41 0.54 0.91 1.02 1.35 1.19 1.06 0.98 0.89 0.70 0.39 0.25 0.20 0.27 0.33 0.46 0.54 0.46 0.38 0.30 0.26 0.27 0.29 0.31 0.27 0.26 0.23 0.22 0.16 0.12 0.10 0.12 0.09
2.69 2.14 2.17 2.88 3.96 5.58 6.75 6.75 5.24 4.22 2.16 0.72 0.22 0.15 0.10 0.05 0.06 0.06 0.08 0.14 0.22 0.37 0.91 1.43 1.70 1.27 0.66 0.70 0.71 0.42 0.33 0.33 0.28 0.11 0.15 0.24 0.37 0.48 0.47 0.40 0.28 0.24 0.25 0.29 0.29 0.38 0.37 0.27 0.26 0.23 0.22 0.26 0.32 0.19
3.14 2.85 2.60 3.27 3.84 5.47 6.05 5.57 3.98 2.16 1.08 0.52 0.28 0.23 0.22 0.19 0.14 0.11 0.12 0.24 0.62 1.25 1.93 1.85 1.13 0.83 0.84 0.59 0.62 0.60 0.45 0.38 0.35 0.27 0.10 0.14 0.20 0.31 0.36 0.38 0.34 0.28 0.30 0.28 0.27 0.36 0.45 0.34 0.24 0.25 0.32 0.49 0.56 0.31
4.07 3.63 4.08 5.37 6.26 5.83 5.17 3.55 2.48 1.56 0.89 0.57 0.60 0.38 0.47 0.46 0.43 0.48 0.63 0.80 1.68 2.23 1.44 0.73 0.56 0.45 0.54 0.52 0.45 0.43 0.30 0.34 0.42 0.51 0.54 0.48 0.24 0.21 0.25 0.26 0.30 0.35 0.44 0.46 0.44 0.35 0.39 0.37 0.34 0.36 0.46 0.38 0.36 0.41
5.02 4.51 6.31 6.20 6.86 6.57 5.11 2.80 1.64 1.08 0.70 0.81 0.74 0.62 0.76 0.77 0.76 0.80 0.94 1.64 1.82 1.27 0.78 0.61 0.45 0.46 0.35 0.25 0.20 0.21 0.20 0.16 0.17 0.22 0.27 0.33 0.27 0.24 0.20 0.19 0.37 0.44 0.40 0.47 0.54 0.55 0.45 0.44 0.57 0.73 0.55 0.47 0.40 0.30
4.45 3.93 5.12 5.20 4.89 4.38 3.52 1.95 1.48 1.19 1.02 1.06 0.90 0.86 0.96 0.83 0.87 0.97 1.37 1.18 0.94 0.81 0.61 0.51 0.44 0.35 0.28 0.10 0.09 0.08 0.10 0.17 0.17 0.18 0.21 0.16 0.15 0.16 0.22 0.19 0.24 0.42 0.45 0.35 0.39 0.57 0.59 0.48 0.58 0.68 0.49 0.32 0.24 0.25
4.21 5.36 5.35 4.94 3.68 2.78 2.20 1.76 1.22 0.84 0.91 0.85 0.93 0.88 0.78 0.80 0.99 1.16 0.88 0.60 0.76 0.64 0.44 0.41 0.35 0.25 0.16 0.13 0.14 0.16 0.19 0.23 0.21 0.15 0.21 0.31 0.24 0.15 0.16 0.17 0.20 0.30 0.37 0.44 0.49 0.55 0.41 0.39 0.47 0.39 0.31 0.37 0.32 0.34
6.22 5.91 4.16 3.54 2.46 1.38 0.89 0.72 0.59 0.53 0.64 0.56 0.63 0.72 0.68 0.78 1.02 0.87 0.52 0.46 0.50 0.61 0.54 0.41 0.37 0.40 0.44 0.34 0.25 0.21 0.21 0.41 0.50 0.48 0.28 0.35 0.38 0.35 0.27 0.18 0.14 0.18 0.20 0.61 0.54 0.42 0.36 0.43 0.48 0.42 0.41 0.54 0.78 0.94
4.97 2.83 2.12 1.24 0.71 0.31 0.30 0.35 0.38 0.40 0.47 0.60 0.65 0.60 0.63 0.74 0.83 0.72 0.47 0.51 0.56 0.74 0.81 0.71 0.62 0.48 0.37 0.50 0.58 0.52 0.47 0.53 0.70 0.69 0.38 0.41 0.59 0.84 0.72 0.49 0.35 0.26 0.24 0.62 0.92 0.85 0.62 0.48 0.58 0.54 0.54 0.56 0.79 0.94
2.76 1.45 0.83 0.30 0.16 0.13 0.20 0.27 0.30 0.39 0.53 0.54 0.49 0.46 0.59 0.92 0.67 0.38 0.37 0.53 0.78 0.85 0.93 0.91 0.76 0.69 0.62 0.52 0.52 0.57 0.63 0.73 0.92 0.84 0.59 0.54 0.54 0.58 0.95 1.20 1.06 0.72 0.93 0.95 0.93 1.05 1.09 0.84 0.71 0.62 0.64 0.53 0.62 0.82
0.92 0.36 0.40 0.32 0.23 0.17 0.22 0.33 0.41 0.40 0.33 0.24 0.24 0.31 0.40 0.36 0.30 0.33 0.46 0.56 0.72 0.77 0.81 0.76 0.74 0.72 0.69 0.64 0.63 0.65 0.65 0.64 0.62 0.59 0.58 0.58 0.53 0.49 0.58 0.81 1.05 1.26 1.41 1.29 1.58 1.49 1.21 1.21 1.05 0.88 0.76 0.70 0.56 0.58
0.39 0.27 0.19 0.24 0.26 0.33 0.37 0.34 0.30 0.26 0.21 0.20 0.22 0.26 0.29 0.28 0.37 0.44 0.49 0.52 0.61 0.66 0.68 0.64 0.61 0.59 0.61 0.64 0.65 0.68 0.73 0.79 0.86 0.75 0.50 0.44 0.43 0.51 0.64 0.90 1.02 0.96 0.94 0.90 0.81 1.09 1.35 1.75 1.77 1.57 1.15 0.94 0.78 0.76
0.35 0.28 0.28 0.28 0.24 0.25 0.21 0.22 0.21 0.22 0.19 0.25 0.30 0.31 0.32 0.41 0.51 0.52 0.54 0.59 0.59 0.60 0.67 0.73 0.71 0.65 0.62 0.62 0.63 0.59 0.62 0.72 1.06 1.48 1.54 1.01 0.84 0.84 0.97 1.13 1.07 0.90 0.92 0.93 0.85 0.78 0.84 0.91 0.85 0.84 0.86 0.86 0.89 0.91
0.32 0.30 0.34 0.29 0.29 0.27 0.30 0.35 0.40 0.35 0.36 0.38 0.38 0.36 0.39 0.46 0.57 0.57 0.51 0.54 0.52 0.52 0.61 0.71 0.65 0.66 0.73 0.75 0.79 0.81 0.68 0.56 0.68 0.95 1.28 1.43 1.29 1.25 1.32 1.36 1.19 1.13 1.09 1.04 0.97 0.90 0.85 0.78 0.74 0.77 0.77 0.76 0.75 0.81
0.41 0.44 0.34 0.32 0.34 0.38 0.45 0.44 0.44 0.45 0.48 0.48 0.46 0.46 0.51 0.56 0.64 0.56 0.43 0.47 0.47 0.52 0.62 0.67 0.69 0.67 0.70 0.79 0.81 0.94 1.16 1.02 0.91 1.09 1.36 1.60 1.66 1.65 1.79 1.34 1.19 1.20 1.14 1.09 1.06 1.05 1.00 1.02 1.00 1.00 0.97 0.88 0.84 0.78
0.58 0.58 0.54 0.50 0.46 0.45 0.41 0.44 0.47 0.46 0.42 0.40 0.44 0.43 0.44 0.44 0.44 0.35 0.35 0.45 0.53 0.62 0.64 0.64 0.68 0.70 0.70 0.70 0.69 0.70 0.79 0.90 1.04 1.24 1.41 1.55 1.72 2.01 1.79 1.22 1.14 1.12 1.12 1.12 1.12 1.15 1.15 1.13 1.05 1.02 1.00 0.97 0.90 0.85

GFSWCAN_prec_precacc_342.txt.gz
Total_Precipitation_Accumulation
2.92 2.70 2.74 2.90 2.78 2.66 2.56 2.72 2.82 2.52 2.29 1.74 1.63 1.42 1.27 1.27 1.58 1.45 1.33 1.68 2.33 3.05 2.18 1.24 1.12 1.17 0.99 1.06 1.72 1.32 0.95 0.83 0.88 1.30 1.09 0.67 0.65 0.49 0.40 0.37 0.28 0.32 0.53 0.66 0.78 1.14 1.06 0.29 0.14 0.38 0.51 0.26 0.17 0.14
3.08 3.15 3.19 3.37 3.32 3.32 3.20 2.80 2.68 2.49 2.14 1.72 1.75 1.70 1.78 1.70 1.78 1.72 1.53 1.47 1.70 2.66 2.20 1.02 0.87 0.84 0.85 0.96 1.46 1.41 1.13 0.92 0.97 1.27 1.10 0.78 0.61 0.47 0.48 0.62 0.32 0.42 0.51 0.54 0.64 0.82 0.78 0.49 0.59 0.55 0.43 0.31 0.24 0.20
2.81 3.05 3.04 2.84 2.67 2.43 2.43 2.69 2.94 2.34 1.71 1.44 1.54 1.58 1.37 1.25 1.45 1.79 1.36 1.38 1.51 2.01 1.56 0.91 0.65 0.47 0.34 0.57 1.11 1.73 1.38 1.32 1.41 1.28 1.33 0.98 0.83 0.61 0.43 0.46 0.45 0.40 0.39 0.50 0.54 0.58 0.42 0.48 0.37 0.39 0.42 0.43 0.27 0.12
2.51 2.60 2.45 2.16 2.15 1.97 1.53 1.35 1.54 1.79 1.25 1.11 1.24 1.26 1.07 0.93 1.11 1.35 0.74 0.80 0.97 1.09 1.04 0.72 0.33 0.30 0.30 0.39 0.66 1.15 1.45 1.17 1.29 1.32 2.19 1.85 1.27 0.62 0.56 0.49 0.32 0.37 0.40 0.58 0.78 0.64 0.58 0.61 0.46 0.40 0.35 0.20 0.09 0.06
1.92 2.03 1.96 1.71 1.51 1.56 1.66 1.34 0.95 1.14 1.36 1.15 1.10 0.94 0.78 0.99 1.11 0.87 0.53 0.87 1.07 1.48 1.65 0.64 0.30 0.24 0.13 0.31 0.59 0.86 1.44 1.50 1.71 2.12 2.21 1.91 1.37 1.10 0.99 0.88 1.07 0.88 0.89 0.90 1.00 0.88 0.88 0.84 0.72 0.54 0.35 0.29 0.26 0.20
1.81 1.59 1.75 1.63 1.52 1.25 1.14 1.11 1.16 1.10 0.96 0.90 0.89 0.78 0.87 1.24 1.56 0.93 0.86 0.76 0.78 1.12 2.25 0.94 0.34 0.12 0.08 0.33 0.57 0.73 0.92 1.33 1.98 2.23 1.98 1.87 1.61 1.63 1.87 1.33 1.20 0.92 0.93 1.11 1.18 1.17 1.17 1.18 0.87 0.78 0.68 0.61 0.57 0.45
2.88 2.21 1.83 1.61 1.42 1.31 1.09 1.06 1.28 1.15 1.06 1.02 1.13 1.10 0.96 1.33 1.20 0.98 0.72 1.12 1.27 1.59 1.95 0.98 0.49 0.16 0.11 0.50 0.87 0.92 0.81 1.56 2.12 2.55 2.05 1.49 1.29 1.42 2.01 1.41 1.09 0.92 0.99 1.14 1.10 0.80 0.90 0.84 1.14 1.08 1.03 1.16 1.00 0.89
2.96 3.12 3.05 2.25 1.72 1.52 1.30 1.28 1.35 1.37 1.22 1.40 1.55 1.65 1.69 1.86 1.65 1.07 0.91 1.09 1.23 2.04 2.06 1.55 0.52 0.21 0.19 0.77 1.33 1.21 1.38 1.59 1.68 1.91 1.59 1.16 1.10 1.36 2.02 1.56 1.02 0.82 0.64 0.60 0.76 0.80 1.14 1.09 0.89 0.86 0.81 0.75 0.61 0.62
2.72 2.66 3.28 3.47 2.87 2.38 1.99 1.64 1.47 1.73 1.83 1.94 2.13 2.07 2.08 1.47 0.72 0.50 0.73 1.13 1.34 2.02 2.81 1.64 0.73 0.48 0.27 0.71 1.06 1.34 1.20 1.43 1.19 1.09 1.06 0.91 1.02 1.52 1.63 1.12 0.85 0.79 0.69 0.88 0.73 0.63 0.60 0.52 0.53 0.49 0.44 0.41 0.39 0.42
2.58 3.09 3.13 3.27 3.64 3.32 3.00 2.41 2.31 2.43 2.42 2.66 2.34 1.87 1.56 0.81 0.78 1.11 1.69 2.16 2.93 2.34 1.84 1.41 0.43 0.57 0.42 0.60 1.10 1.63 1.96 1.53 1.27 0.97 0.77 1.22 1.69 1.72 1.37 1.04 0.90 0.78 0.74 0.66 0.54 0.43 0.33 0.30 0.31 0.28 0.26 0.27 0.32 0.33
2.16 2.59 3.28 3.42 3.60 4.04 4.22 3.76 3.49 3.44 3.79 3.00 2.45 1.80 1.56 1.57 1.73 1.99 2.02 1.87 1.59 1.82 1.04 0.55 0.27 0.55 0.51 1.20 1.52 1.79 2.20 1.54 1.34 0.94 0.99 1.24 1.48 1.32 0.92 0.66 0.59 0.51 0.39 0.29 0.31 0.32 0.27 0.28 0.25 0.21 0.16 0.11 0.13 0.14
2.10 2.36 2.66 3.26 3.69 3.98 5.02 5.18 5.02 4.60 3.40 2.00 1.77 2.24 2.44 2.39 2.38 1.92 1.49 1.04 1.25 0.94 0.69 0.57 0.39 0.42 0.52 0.87 1.80 2.19 1.88 1.69 1.32 0.86 1.19 1.08 1.31 0.85 0.49 0.50 0.41 0.22 0.17 0.14 0.12 0.15 0.10 0.10 0.10 0.13 0.14 0.10 0.06 0.06
2.02 2.18 2.51 2.79 3.25 3.85 4.81 6.55 6.91 5.65 3.57 3.13 4.27 4.40 3.11 2.56 1.89 1.33 0.86 0.97 0.98 0.70 0.73 0.80 0.72 0.57 0.82 1.19 1.95 2.01 1.88 1.41 0.82 0.96 0.88 0.91 0.78 0.46 0.34 0.25 0.16 0.12 0.09 0.08 0.07 0.06 0.06 0.07 0.07 0.12 0.16 0.10 0.08 0.08
1.64 1.81 2.29 2.55 2.74 3.70 4.93 6.04 7.59 6.72 4.83 5.73 5.59 4.53 2.16 1.53 0.70 0.85 0.73 0.65 0.67 0.69 0.76 0.86 0.99 0.98 1.03 1.63 1.74 1.61 1.40 1.25 1.11 0.77 0.80 0.80 0.50 0.35 0.26 0.21 0.20 0.25 0.33 0.33 0.24 0.17 0.15 0.14 0.16 0.11 0.11 0.13 0.15 0.14
1.66 1.96 2.35 2.50 2.53 3.20 4.19 5.36 6.07 5.12 5.74 5.96 4.37 2.34 1.04 0.46 0.29 0.43 0.32 0.32 0.42 0.50 0.62 0.79 1.00 0.92 1.08 1.49 1.14 1.01 1.13 0.83 0.60 0.76 0.87 0.60 0.41 0.28 0.28 0.31 0.33 0.35 0.47 0.58 0.59 0.56 0.52 0.44 0.42 0.33 0.16 0.14 0.19 0.19
2.49 3.37 2.98 2.33 2.50 3.17 3.97 5.77 6.84 6.73 7.73 5.47 3.55 1.38 0.41 0.22 0.12 0.16 0.23 0.31 0.40 0.60 0.69 0.88 1.03 1.29 1.20 1.06 1.08 0.82 0.75 0.66 0.76 0.83 0.76 0.55 0.49 0.42 0.39 0.32 0.28 0.26 0.23 0.23 0.21 0.22 0.25 0.27 0.33 0.33 0.25 0.20 0.24 0.27
4.20 3.81 2.38 2.01 2.62 3.45 4.78 6.92 8.79 9.63 7.67 5.20 1.94 0.40 0.16 0.17 0.20 0.18 0.24 0.27 0.29 0.56 0.73 1.04 1.50 1.08 1.12 1.29 0.91 0.79 1.05 0.91 0.65 0.39 0.39 0.45 0.60 0.59 0.56 0.44 0.36 0.29 0.24 0.19 0.18 0.15 0.16 0.13 0.14 0.14 0.12 0.10 0.14 0.26
3.79 2.66 2.15 2.40 3.36 4.83 6.03 7.03 7.56 7.02 5.46 2.54 0.57 0.19 0.07 0.07 0.08 0.08 0.12 0.17 0.28 0.41 0.54 0.91 1.02 1.35 1.19 1.06 0.98 0.89 0.71 0.40 0.26 0.20 0.27 0.33 0.46 0.54 0.46 0.38 0.30 0.26 0.27 0.29 0.31 0.27 0.26 0.23 0.22 0.16 0.12 0.10 0.13 0.10
2.69 2.14 2.17 2.88 3.96 5.58 6.75 6.75 5.24 4.22 2.16 0.72 0.22 0.15 0.10 0.05 0.06 0.06 0.08 0.14 0.22 0.37 0.91 1.43 1.70 1.27 0.66 0.70 0.72 0.43 0.34 0.34 0.29 0.11 0.15 0.24 0.37 0.48 0.47 0.40 0.28 0.24 0.25 0.29 0.29 0.38 0.37 0.27 0.26 0.23 0.22 0.26 0.33 0.19
3.14 2.85 2.60 3.27 3.84 5.47 6.05 5.57 3.98 2.16 1.08 0.52 0.28 0.23 0.22 0.19 0.14 0.11 0.12 0.24 0.62 1.25 1.93 1.85 1.13 0.83 0.84 0.60 0.62 0.61 0.46 0.40 0.36 0.28 0.10 0.14 0.20 0.31 0.36 0.38 0.34 0.28 0.30 0.28 0.27 0.36 0.45 0.34 0.24 0.25 0.32 0.50 0.56 0.31
4.07 3.63 4.08 5.37 6.26 5.83 5.17 3.55 2.48 1.56 0.89 0.57 0.60 0.38 0.47 0.46 0.43 0.48 0.63 0.80 1.68 2.23 1.44 0.73 0.56 0.45 0.54 0.52 0.45 0.43 0.30 0.35 0.43 0.53 0.55 0.49 0.24 0.21 0.25 0.26 0.30 0.35 0.44 0.46 0.44 0.35 0.39 0.37 0.34 0.36 0.46 0.39 0.36 0.41
5.02 4.51 6.31 6.20 6.86 6.57 5.11 2.80 1.64 1.08 0.70 0.81 0.74 0.62 0.76 0.77 0.76 0.80 0.94 1.64 1.82 1.27 0.78 0.61 0.45 0.46 0.35 0.25 0.20 0.21 0.20 0.16 0.17 0.23 0.28 0.35 0.28 0.25 0.20 0.19 0.37 0.44 0.40 0.47 0.54 0.55 0.45 0.44 0.58 0.73 0.56 0.47 0.40 0.30
4.45 3.93 5.12 5.20 4.89 4.38 3.52 1.95 1.48 1.19 1.02 1.06 0.90 0.86 0.96 0.83 0.87 0.97 1.37 1.18 0.94 0.81 0.61 0.51 0.44 0.35 0.28 0.10 0.09 0.08 0.10 0.17 0.17 0.18 0.22 0.18 0.17 0.18 0.23 0.19 0.24 0.43 0.45 0.35 0.39 0.57 0.59 0.48 0.58 0.68 0.49 0.32 0.24 0.25
4.21 5.36 5.35 4.94 3.68 2.78 2.20 1.76 1.22 0.84 0.91 0.85 0.93 0.88 0.78 0.80 0.99 1.16 0.88 0.60 0.76 0.64 0.44 0.41 0.35 0.25 0.16 0.13 0.14 0.16 0.19 0.23 0.21 0.15 0.22 0.32 0.25 0.16 0.17 0.19 0.21 0.30 0.37 0.44 0.49 0.55 0.41 0.39 0.47 0.39 0.31 0.37 0.32 0.34
6.22 5.91 4.16 3.54 2.46 1.38 0.89 0.72 0.59 0.53 0.64 0.56 0.63 0.72 0.68 0.78 1.02 0.87 0.52 0.46 0.50 0.61 0.54 0.41 0.37 0.40 0.44 0.34 0.25 0.21 0.21 0.41 0.50 0.48 0.28 0.36 0.39 0.35 0.28 0.19 0.15 0.18 0.21 0.61 0.55 0.42 0.36 0.43 0.48 0.42 0.41 0.55 0.78 0.94
4.97 2.83 2.12 1.24 0.71 0.31 0.30 0.35 0.38 0.40 0.47 0.60 0.65 0.60 0.63 0.74 0.83 0.72 0.47 0.51 0.56 0.74 0.81 0.71 0.62 0.48 0.37 0.50 0.58 0.52 0.47 0.53 0.70 0.69 0.38 0.41 0.59 0.84 0.72 0.50 0.36 0.26 0.24 0.62 0.93 0.86 0.63 0.48 0.59 0.54 0.54 0.56 0.80 0.94
2.76 1.45 0.83 0.30 0.16 0.13 0.20 0.27 0.30 0.39 0.53 0.54 0.49 0.46 0.59 0.92 0.67 0.38 0.37 0.53 0.78 0.85 0.93 0.91 0.76 0.69 0.62 0.52 0.52 0.57 0.63 0.73 0.92 0.84 0.59 0.54 0.54 0.58 0.95 1.20 1.06 0.73 0.93 0.95 0.94 1.06 1.10 0.85 0.71 0.62 0.65 0.53 0.62 0.82
0.92 0.36 0.40 0.32 0.23 0.17 0.22 0.33 0.41 0.40 0.33 0.24 0.24 0.31 0.40 0.36 0.30 0.33 0.46 0.56 0.72 0.77 0.81 0.76 0.74 0.72 0.69 0.64 0.63 0.65 0.65 0.64 0.62 0.59 0.58 0.58 0.53 0.49 0.58 0.81 1.05 1.26 1.41 1.31 1.61 1.51 1.22 1.22 1.05 0.89 0.77 0.70 0.57 0.58
0.39 0.27 0.19 0.24 0.26 0.33 0.37 0.34 0.30 0.26 0.21 0.20 0.22 0.26 0.29 0.28 0.37 0.44 0.49 0.52 0.61 0.66 0.68 0.64 0.61 0.59 0.61 0.64 0.65 0.68 0.73 0.79 0.86 0.75 0.50 0.44 0.43 0.51 0.64 0.90 1.02 0.96 0.95 0.91 0.83 1.12 1.38 1.78 1.80 1.61 1.18 0.94 0.79 0.77
0.35 0.28 0.28 0.28 0.24 0.25 0.21 0.22 0.21 0.22 0.19 0.25 0.30 0.31 0.32 0.41 0.51 0.52 0.54 0.59 0.59 0.60 0.67 0.73 0.71 0.65 0.62 0.62 0.63 0.59 0.62 0.72 1.06 1.48 1.54 1.01 0.84 0.84 0.97 1.13 1.07 0.90 0.92 0.93 0.85 0.78 0.85 0.93 0.86 0.86 0.88 0.88 0.91 0.92
0.32 0.30 0.34 0.29 0.29 0.27 0.30 0.35 0.40 0.35 0.36 0.38 0.38 0.36 0.39 0.46 0.57 0.57 0.51 0.54 0.52 0.52 0.61 0.71 0.65 0.66 0.73 0.75 0.79 0.81 0.68 0.56 0.68 0.95 1.28 1.43 1.29 1.25 1.32 1.36 1.19 1.14 1.09 1.04 0.97 0.91 0.86 0.79 0.75 0.77 0.78 0.78 0.77 0.83
0.41 0.44 0.34 0.32 0.34 0.38 0.45 0.44 0.44 0.45 0.48 0.48 0.46 0.46 0.51 0.56 0.64 0.56 0.43 0.47 0.47 0.52 0.62 0.67 0.69 0.67 0.71 0.79 0.81 0.94 1.16 1.02 0.91 1.09 1.36 1.60 1.67 1.66 1.79 1.34 1.19 1.20 1.15 1.09 1.06 1.05 1.00 1.03 1.00 1.00 0.97 0.88 0.85 0.80
0.58 0.58 0.54 0.50 0.46 0.45 0.41 0.44 0.47 0.46 0.42 0.40 0.44 0.43 0.44 0.44 0.44 0.35 0.35 0.45 0.53 0.62 0.64 0.64 0.68 0.70 0.70 0.70 0.69 0.70 0.79 0.90 1.04 1.24 1.41 1.55 1.72 2.01 1.79 1.22 1.14 1.12 1.13 1.12 1.13 1.16 1.15 1.13 1.05 1.02 1.00 0.97 0.91 0.86

GFSWCAN_prec_precacc_345.txt.gz
Total_Precipitation_Accumulation
2.92 2.70 2.74 2.90 2.78 2.66 2.56 2.72 2.82 2.52 2.29 1.75 1.64 1.42 1.28 1.27 1.58 1.45 1.34 1.71 2.37 3.18 2.34 1.32 1.19 1.25 1.06 1.13 1.79 1.39 1.01 0.87 0.92 1.35 1.16 0.74 0.70 0.54 0.44 0.41 0.31 0.34 0.55 0.69 0.81 1.17 1.10 0.31 0.14 0.40 0.54 0.27 0.18 0.14
3.08 3.15 3.19 3.37 3.32 3.32 3.20 2.80 2.68 2.49 2.14 1.72 1.76 1.71 1.78 1.70 1.78 1.72 1.55 1.50 1.71 2.71 2.28 1.07 0.91 0.87 0.89 1.01 1.50 1.45 1.17 0.96 1.01 1.31 1.14 0.81 0.64 0.50 0.51 0.64 0.33 0.43 0.52 0.55 0.65 0.85 0.81 0.51 0.60 0.56 0.43 0.31 0.24 0.21
2.81 3.05 3.04 2.84 2.67 2.43 2.43 2.69 2.94 2.34 1.71 1.44 1.54 1.58 1.37 1.25 1.45 1.79 1.37 1.38 1.51 2.02 1.58 0.92 0.65 0.47 0.34 0.57 1.12 1.74 1.39 1.34 1.42 1.30 1.35 1.00 0.84 0.62 0.44 0.47 0.45 0.40 0.39 0.50 0.55 0.59 0.42 0.48 0.37 0.39 0.42 0.43 0.27 0.12
2.51 2.60 2.45 2.16 2.15 1.97 1.53 1.35 1.54 1.79 1.25 1.11 1.24 1.26 1.07 0.93 1.11 1.35 0.74 0.80 0.97 1.09 1.04 0.72 0.33 0.30 0.30 0.39 0.66 1.15 1.45 1.17 1.29 1.32 2.19 1.86 1.28 0.62 0.56 0.49 0.32 0.37 0.40 0.58 0.78 0.64 0.58 0.61 0.46 0.40 0.35 0.20 0.09 0.06
1.92 2.03 1.96 1.71 1.51 1.56 1.66 1.34 0.95 1.14 1.36 1.15 1.10 0.94 0.78 0.99 1.11 0.87 0.53 0.87 1.07 1.48 1.65 0.64 0.30 0.24 0.13 0.31 0.59 0.86 1.44 1.50 1.71 2.12 2.21 1.91 1.37 1.10 0.99 0.88 1.07 0.89 0.89 0.91 1.00 0.88 0.89 0.84 0.72 0.54 0.35 0.29 0.26 0.20
1.81 1.59 1.75 1.63 1.52 1.25 1.14 1.11 1.16 1.10 0.96 0.90 0.89 0.78 0.87 1.24 1.56 0.93 0.86 0.76 0.78 1.12 2.25 0.94 0.34 0.12 0.08 0.33 0.57 0.73 0.92 1.33 1.98 2.23 1.98 1.87 1.61 1.63 1.87 1.33 1.20 0.92 0.94 1.11 1.18 1.17 1.17 1.18 0.87 0.78 0.68 0.61 0.57 0.45
2.88 2.21 1.83 1.61 1.42 1.31 1.09 1.06 1.28 1.15 1.06 1.02 1.13 1.10 0.96 1.33 1.20 0.98 0.72 1.12 1.27 1.59 1.95 0.98 0.49 0.16 0.11 0.50 0.87 0.92 0.81 1.56 2.12 2.55 2.05 1.49 1.29 1.42 2.01 1.41 1.09 0.92 0.99 1.14 1.10 0.80 0.90 0.84 1.14 1.08 1.03 1.16 1.00 0.89
2.96 3.12 3.05 2.25 1.72 1.52 1.30 1.28 1.35 1.37 1.22 1.40 1.55 1.65 1.69 1.86 1.65 1.07 0.91 1.09 1.23 2.04 2.06 1.55 0.52 0.21 0.19 0.77 1.33 1.21 1.38 1.59 1.68 1.91 1.59 1.16 1.10 1.36 2.02 1.56 1.02 0.82 0.64 0.60 0.76 0.80 1.14 1.09 0.89 0.86 0.81 0.75 0.61 0.62
2.72 2.66 3.28 3.47 2.87 2.38 1.99 1.64 1.47 1.73 1.83 1.94 2.13 2.07 2.08 1.47 0.72 0.50 0.73 1.13 1.34 2.02 2.81 1.64 0.73 0.48 0.27 0.71 1.06 1.34 1.20 1.43 1.19 1.09 1.06 0.91 1.02 1.52 1.63 1.12 0.85 0.79 0.69 0.88 0.73 0.63 0.60 0.52 0.53 0.49 0.44 0.41 0.39 0.42
2.58 3.09 3.13 3.27 3.64 3.32 3.00 2.41 2.31 2.43 2.42 2.66 2.34 1.87 1.56 0.81 0.78 1.11 1.69 2.16 2.93 2.34 1.84 1.41 0.43 0.57 0.42 0.60 1.10 1.63 1.96 1.53 1.27 0.97 0.77 1.22 1.69 1.72 1.37 1.05 0.90 0.78 0.74 0.66 0.55 0.43 0.33 0.30 0.31 0.28 0.26 0.27 0.32 0.33
2.16 2.59 3.28 3.42 3.60 4.04 4.22 3.76 3.49 3.44 3.79 3.00 2.45 1.80 1.56 1.57 1.73 1.99 2.02 1.87 1.59 1.82 1.04 0.55 0.27 0.55 0.51 1.20 1.52 1.79 2.20 1.54 1.34 0.94 0.99 1.24 1.48 1.32 0.92 0.66 0.59 0.51 0.39 0.29 0.31 0.32 0.27 0.28 0.25 0.21 0.16 0.11 0.13 0.14
2.10 2.36 2.66 3.26 3.69 3.98 5.02 5.18 5.02 4.60 3.40 2.00 1.77 2.24 2.44 2.39 2.38 1.92 1.49 1.04 1.25 0.94 0.69 0.57 0.39 0.42 0.52 0.87 1.80 2.19 1.88 1.69 1.32 0.86 1.19 1.08 1.31 0.85 0.49 0.50 0.41 0.22 0.17 0.14 0.12 0.15 0.10 0.10 0.10 0.13 0.14 0.10 0.06 0.06
2.02 2.18 2.51 2.79 3.25 3.85 4.81 6.55 6.91 5.65 3.57 3.13 4.27 4.40 3.11 2.56 1.89 1.33 0.86 0.97 0.98 0.70 0.73 0.80 0.72 0.57 0.82 1.19 1.95 2.01 1.88 1.41 0.82 0.96 0.88 0.91 0.78 0.46 0.34 0.25 0.16 0.12 0.09 0.08 0.07 0.06 0.06 0.07 0.07 0.12 0.16 0.10 0.08 0.09
1.64 1.81 2.29 2.55 2.74 3.70 4.93 6.04 7.59 6.72 4.83 5.73 5.59 4.53 2.16 1.53 0.70 0.85 0.73 0.65 0.67 0.69 0.76 0.86 0.99 0.98 1.03 1.63 1.74 1.61 1.40 1.25 1.11 0.77 0.80 0.80 0.50 0.35 0.26 0.21 0.20 0.25 0.33 0.33 0.24 0.17 0.15 0.14 0.16 0.11 0.11 0.13 0.15 0.14
1.66 1.96 2.35 2.50 2.53 3.20 4.19 5.36 6.07 5.12 5.74 5.96 4.37 2.34 1.04 0.46 0.29 0.43 0.32 0.32 0.42 0.50 0.62 0.79 1.00 0.92 1.08 1.49 1.14 1.01 1.13 0.83 0.60 0.76 0.87 0.60 0.41 0.28 0.28 0.31 0.33 0.35 0.47 0.58 0.59 0.56 0.52 0.44 0.42 0.33 0.16 0.14 0.19 0.19
2.49 3.37 2.98 2.33 2.50 3.17 3.97 5.77 6.84 6.73 7.73 5.47 3.55 1.38 0.41 0.22 0.12 0.16 0.23 0.31 0.40 0.60 0.69 0.88 1.03 1.29 1.20 1.06 1.08 0.82 0.75 0.66 0.76 0.83 0.77 0.56 0.49 0.42 0.39 0.32 0.28 0.26 0.23 0.23 0.21 0.22 0.25 0.27 0.33 0.33 0.25 0.20 0.24 0.27
4.20 3.81 2.38 2.01 2.62 3.45 4.78 6.92 8.79 9.63 7.67 5.20 1.94 0.40 0.16 0.17 0.20 0.18 0.24 0.27 0.29 0.56 0.73 1.04 1.50 1.08 1.12 1.29 0.91 0.80 1.07 0.93 0.67 0.40 0.39 0.45 0.61 0.60 0.56 0.44 0.36 0.29 0.24 0.19 0.18 0.15 0.16 0.13 0.14 0.14 0.12 0.10 0.14 0.26
3.79 2.66 2.15 2.40 3.36 4.83 6.03 7.03 7.56 7.02 5.46 2.54 0.57 0.19 0.07 0.07 0.08 0.08 0.12 0.17 0.28 0.41 0.54 0.91 1.02 1.35 1.19 1.07 0.99 0.90 0.72 0.41 0.28 0.23 0.29 0.34 0.46 0.54 0.46 0.38 0.30 0.26 0.27 0.29 0.31 0.27 0.26 0.23 0.22 0.16 0.12 0.10 0.13 0.10
2.69 2.14 2.17 2.88 3.96 5.58 6.75 6.75 5.24 4.22 2.16 0.72 0.22 0.15 0.10 0.05 0.06 0.06 0.08 0.14 0.22 0.37 0.91 1.43 1.70 1.27 0.66 0.70 0.72 0.43 0.34 0.34 0.29 0.11 0.16 0.24 0.37 0.48 0.47 0.40 0.28 0.24 0.25 0.29 0.29 0.38 0.37 0.27 0.26 0.23 0.22 0.26 0.33 0.20
3.14 2.85 2.60 3.27 3.84 5.47 6.05 5.57 3.98 2.16 1.08 0.52 0.28 0.23 0.22 0.19 0.14 0.11 0.12 0.24 0.62 1.25 1.93 1.85 1.13 0.83 0.84 0.60 0.62 0.61 0.46 0.40 0.36 0.28 0.10 0.14 0.20 0.31 0.36 0.38 0.34 0.28 0.30 0.28 0.27 0.36 0.45 0.34 0.24 0.25 0.32 0.51 0.57 0.31
4.07 3.63 4.08 5.37 6.26 5.83 5.17 3.55 2.48 1.56 0.89 0.57 0.60 0.38 0.47 0.46 0.43 0.48 0.63 0.80 1.68 2.23 1.44 0.73 0.56 0.45 0.54 0.52 0.45 0.43 0.30 0.35 0.43 0.53 0.55 0.50 0.24 0.21 0.26 0.26 0.31 0.35 0.45 0.46 0.44 0.35 0.39 0.37 0.34 0.36 0.46 0.39 0.36 0.41
5.02 4.51 6.31 6.20 6.86 6.57 5.11 2.80 1.64 1.08 0.70 0.81 0.74 0.62 0.76 0.77 0.76 0.80 0.94 1.64 1.82 1.27 0.78 0.61 0.45 0.46 0.35 0.25 0.20 0.21 0.20 0.16 0.17 0.23 0.28 0.36 0.29 0.25 0.20 0.20 0.37 0.44 0.40 0.47 0.54 0.55 0.45 0.44 0.58 0.73 0.56 0.47 0.40 0.30
4.45 3.93 5.12 5.20 4.89 4.38 3.52 1.95 1.48 1.19 1.02 1.06 0.90 0.86 0.96 0.83 0.87 0.97 1.37 1.18 0.94 0.81 0.61 0.51 0.44 0.35 0.28 0.10 0.09 0.08 0.10 0.17 0.17 0.18 0.22 0.18 0.17 0.18 0.23 0.19 0.25 0.43 0.45 0.35 0.39 0.57 0.59 0.48 0.58 0.68 0.50 0.32 0.24 0.25
4.21 5.36 5.35 4.94 3.68 2.78 2.20 1.76 1.22 0.84 0.91 0.85 0.93 0.88 0.78 0.80 0.99 1.16 0.88 0.60 0.76 0.64 0.44 0.41 0.35 0.25 0.16 0.13 0.14 0.16 0.19 0.23 0.21 0.15 0.22 0.32 0.25 0.16 0.17 0.19 0.21 0.31 0.38 0.44 0.50 0.56 0.41 0.40 0.47 0.39 0.31 0.37 0.32 0.34
6.22 5.91 4.16 3.54 2.46 1.38 0.89 0.72 0.59 0.53 0.64 0.56 0.63 0.72 0.68 0.78 1.02 0.87 0.52 0.46 0.50 0.61 0.54 0.41 0.37 0.40 0.44 0.34 0.25 0.21 0.21 0.41 0.50 0.48 0.28 0.36 0.39 0.35 0.28 0.19 0.15 0.19 0.21 0.62 0.55 0.43 0.37 0.45 0.49 0.43 0.42 0.55 0.78 0.95
4.97 2.83 2.12 1.24 0.71 0.31 0.30 0.35 0.38 0.40 0.47 0.60 0.65 0.60 0.63 0.74 0.83 0.72 0.47 0.51 0.56 0.74 0.81 0.71 0.62 0.48 0.37 0.50 0.58 0.52 0.47 0.53 0.70 0.69 0.38 0.41 0.59 0.84 0.72 0.50 0.36 0.26 0.24 0.63 0.93 0.87 0.63 0.49 0.60 0.56 0.55 0.57 0.81 0.95
2.76 1.45 0.83 0.30 0.16 0.13 0.20 0.27 0.30 0.39 0.53 0.54 0.49 0.46 0.59 0.92 0.67 0.38 0.37 0.53 0.78 0.85 0.93 0.91 0.77 0.69 0.62 0.52 0.52 0.57 0.63 0.73 0.92 0.84 0.59 0.54 0.54 0.58 0.95 1.20 1.06 0.73 0.93 0.95 0.94 1.06 1.11 0.86 0.72 0.64 0.67 0.54 0.64 0.84
0.92 0.36 0.40 0.32 0.23 0.17 0.22 0.33 0.41 0.40 0.33 0.24 0.24 0.31 0.40 0.36 0.30 0.33 0.46 0.56 0.72 0.77 0.81 0.76 0.74 0.72 0.69 0.64 0.63 0.65 0.65 0.64 0.62 0.59 0.58 0.58 0.53 0.49 0.58 0.81 1.05 1.26 1.41 1.31 1.61 1.52 1.23 1.23 1.06 0.89 0.77 0.71 0.57 0.60
0.39 0.27 0.19 0.24 0.26 0.33 0.37 0.34 0.30 0.26 0.21 0.20 0.22 0.26 0.29 0.28 0.37 0.44 0.49 0.52 0.61 0.66 0.68 0.64 0.61 0.59 0.61 0.64 0.65 0.68 0.73 0.79 0.86 0.75 0.51 0.44 0.43 0.51 0.64 0.90 1.02 0.96 0.95 0.91 0.83 1.12 1.39 1.79 1.82 1.64 1.21 0.97 0.81 0.78
0.35 0.28 0.28 0.28 0.24 0.25 0.21 0.22 0.21 0.22 0.19 0.25 0.30 0.31 0.32 0.41 0.51 0.52 0.54 0.59 0.59 0.60 0.67 0.73 0.71 0.65 0.62 0.62 0.63 0.59 0.62 0.72 1.06 1.49 1.56 1.02 0.85 0.84 0.97 1.13 1.08 0.91 0.92 0.93 0.86 0.78 0.85 0.93 0.87 0.86 0.89 0.89 0.92 0.93
0.32 0.30 0.34 0.29 0.29 0.27 0.30 0.35 0.40 0.35 0.36 0.38 0.38 0.36 0.39 0.46 0.57 0.57 0.51 0.54 0.52 0.52 0.61 0.71 0.65 0.66 0.73 0.75 0.79 0.81 0.68 0.56 0.68 0.96 1.28 1.45 1.30 1.26 1.33 1.37 1.21 1.14 1.10 1.05 0.98 0.91 0.86 0.79 0.75 0.78 0.78 0.78 0.77 0.84
0.41 0.44 0.34 0.32 0.34 0.38 0.45 0.44 0.44 0.45 0.48 0.48 0.46 0.46 0.51 0.56 0.64 0.56 0.43 0.47 0.47 0.52 0.62 0.67 0.70 0.69 0.71 0.79 0.81 0.94 1.16 1.02 0.91 1.09 1.36 1.61 1.67 1.66 1.79 1.34 1.19 1.20 1.15 1.10 1.06 1.06 1.01 1.03 1.01 1.01 0.98 0.89 0.85 0.80
0.58 0.58 0.54 0.50 0.46 0.45 0.41 0.44 0.47 0.46 0.42 0.40 0.44 0.43 0.44 0.44 0.44 0.35 0.35 0.45 0.53 0.62 0.64 0.64 0.68 0.71 0.70 0.70 0.69 0.70 0.79 0.90 1.04 1.24 1.41 1.55 1.72 2.01 1.79 1.22 1.14 1.12 1.13 1.13 1.13 1.16 1.16 1.13 1.06 1.02 1.01 0.98 0.91 0.86

GFSWCAN_prec_precacc_348.txt.gz
Total_Precipitation_Accumulation
2.92 2.70 2.74 2.90 2.78 2.66 2.56 2.72 2.82 2.52 2.29 1.76 1.64 1.42 1.29 1.27 1.58 1.45 1.36 1.72 2.38 3.22 2.39 1.36 1.23 1.28 1.08 1.15 1.80 1.40 1.02 0.88 0.93 1.38 1.19 0.78 0.73 0.58 0.46 0.43 0.32 0.34 0.56 0.70 0.82 1.19 1.12 0.31 0.15 0.40 0.55 0.27 0.18 0.15
3.08 3.15 3.19 3.37 3.32 3.32 3.20 2.80 2.68 2.49 2.14 1.73 1.76 1.71 1.78 1.70 1.78 1.72 1.55 1.50 1.71 2.71 2.30 1.08 0.91 0.88 0.89 1.02 1.51 1.45 1.18 0.97 1.03 1.33 1.16 0.82 0.65 0.51 0.52 0.65 0.33 0.43 0.52 0.56 0.66 0.86 0.82 0.51 0.60 0.56 0.43 0.31 0.24 0.21
2.81 3.05 3.04 2.84 2.67 2.43 2.43 2.69 2.94 2.34 1.71 1.44 1.54 1.59 1.38 1.25 1.45 1.79 1.37 1.38 1.51 2.02 1.58 0.92 0.65 0.47 0.34 0.57 1.12 1.74 1.40 1.34 1.43 1.31 1.36 1.00 0.85 0.63 0.44 0.47 0.45 0.40 0.39 0.50 0.55 0.59 0.42 0.48 0.37 0.39 0.42 0.44 0.27 0.12
2.51 2.60 2.45 2.16 2.15 1.97 1.53 1.35 1.54 1.79 1.25 1.11 1.24 1.26 1.07 0.93 1.11 1.35 0.74 0.80 0.97 1.09 1.04 0.72 0.33 0.30 0.30 0.39 0.66 1.15 1.45 1.17 1.29 1.32 2.19 1.86 1.28 0.62 0.56 0.49 0.32 0.37 0.40 0.58 0.78 0.64 0.58 0.61 0.46 0.40 0.35 0.20 0.09 0.06
1.92 2.03 1.96 1.71 1.51 1.56 1.66 1.34 0.95 1.14 1.36 1.15 1.10 0.94 0.78 0.99 1.11 0.87 0.53 0.87 1.07 1.48 1.65 0.64 0.30 0.24 0.13 0.31 0.59 0.86 1.44 1.50 1.71 2.12 2.21 1.91 1.37 1.10 0.99 0.88 1.07 0.89 0.89 0.91 1.00 0.88 0.89 0.84 0.72 0.54 0.35 0.29 0.26 0.20
1.81 1.59 1.75 1.63 1.52 1.25 1.14 1.11 1.16 1.10 0.96 0.90 0.89 0.78 0.87 1.24 1.56 0.93 0.86 0.76 0.78 1.12 2.25 0.94 0.34 0.12 0.08 0.33 0.57 0.73 0.92 1.33 1.98 2.23 1.98 1.87 1.61 1.63 1.87 1.33 1.20 0.92 0.94 1.11 1.18 1.17 1.17 1.18 0.87 0.78 0.68 0.61 0.57 0.45
2.88 2.21 1.83 1.61 1.42 1.31 1.09 1.06 1.28 1.15 1.06 1.02 1.13 1.10 0.96 1.33 1.20 0.98 0.72 1.12 1.27 1.59 1.95 0.98 0.49 0.16 0.11 0.50 0.87 0.92 0.81 1.56 2.12 2.55 2.05 1.49 1.29 1.42 2.01 1.41 1.09 0.92 0.99 1.14 1.10 0.80 0.90 0.84 1.14 1.08 1.03 1.16 1.00 0.89
2.96 3.12 3.05 2.25 1.72 1.52 1.30 1.28 1.35 1.37 1.22 1.40 1.55 1.65 1.69 1.86 1.65 1.07 0.91 1.09 1.23 2.04 2.06 1.55 0.52 0.21 0.19 0.77 1.33 1.21 1.38 1.59 1.68 1.91 1.59 1.16 1.10 1.36 2.02 1.56 1.02 0.82 0.64 0.60 0.76 0.80 1.14 1.09 0.89 0.86 0.81 0.75 0.61 0.62
2.72 2.66 3.28 3.47 2.87 2.38 1.99 1.64 1.47 1.73 1.83 1.94 2.13 2.07 2.08 1.47 0.72 0.50 0.73 1.13 1.34 2.02 2.81 1.64 0.73 0.48 0.27 0.71 1.06 1.34 1.20 1.43 1.19 1.09 1.06 0.91 1.02 1.52 1.63 1.12 0.85 0.79 0.69 0.88 0.73 0.63 0.60 0.52 0.53 0.49 0.44 0.41 0.39 0.42
2.58 3.09 3.13 3.27 3.64 3.32 3.00 2.41 2.31 2.43 2.42 2.66 2.34 1.87 1.56 0.81 0.78 1.11 1.69 2.16 2.93 2.34 1.84 1.41 0.43 0.57 0.42 0.60 1.10 1.63 1.96 1.53 1.27 0.97 0.77 1.22 1.69 1.72 1.37 1.05 0.90 0.78 0.74 0.66 0.55 0.43 0.33 0.31 0.31 0.28 0.26 0.27 0.32 0.34
2.16 2.59 3.28 3.42 3.60 4.04 4.22 3.76 3.49 3.44 3.79 3.00 2.45 1.80 1.56 1.57 1.73 1.99 2.02 1.87 1.59 1.82 1.04 0.55 0.27 0.55 0.51 1.20 1.52 1.79 2.20 1.54 1.34 0.94 0.99 1.24 1.48 1.32 0.92 0.66 0.59 0.51 0.39 0.29 0.31 0.32 0.27 0.28 0.25 0.21 0.16 0.11 0.13 0.14
2.10 2.36 2.66 3.26 3.69 3.98 5.02 5.18 5.02 4.60 3.40 2.00 1.77 2.24 2.44 2.39 2.38 1.92 1.49 1.04 1.25 0.94 0.69 0.57 0.39 0.42 0.52 0.87 1.80 2.19 1.88 1.69 1.32 0.86 1.19 1.08 1.31 0.85 0.50 0.50 0.41 0.22 0.17 0.14 0.12 0.15 0.10 0.10 0.10 0.13 0.14 0.10 0.06 0.06
2.02 2.18 2.51 2.79 3.25 3.85 4.81 6.55 6.91 5.65 3.57 3.13 4.27 4.40 3.11 2.56 1.89 1.33 0.86 0.97 0.98 0.70 0.73 0.81 0.72 0.57 0.82 1.19 1.95 2.01 1.88 1.41 0.82 0.96 0.88 0.91 0.78 0.46 0.34 0.25 0.16 0.12 0.09 0.08 0.07 0.06 0.06 0.07 0.07 0.12 0.16 0.10 0.08 0.09
1.64 1.81 2.29 2.55 2.74 3.70 4.93 6.04 7.59 6.72 4.83 5.73 5.59 4.53 2.16 1.53 0.70 0.85 0.73 0.65 0.67 0.69 0.76 0.86 0.99 0.98 1.03 1.63 1.74 1.61 1.40 1.25 1.11 0.77 0.80 0.80 0.51 0.36 0.26 0.21 0.20 0.25 0.33 0.33 0.24 0.17 0.15 0.14 0.16 0.11 0.11 0.13 0.15 0.14
1.66 1.96 2.35 2.50 2.53 3.20 4.19 5.36 6.07 5.12 5.74 5.96 4.37 2.34 1.04 0.46 0.29 0.43 0.32 0.32 0.42 0.50 0.62 0.79 1.00 0.92 1.08 1.49 1.14 1.01 1.13 0.83 0.60 0.76 0.87 0.60 0.42 0.29 0.29 0.32 0.33 0.35 0.47 0.58 0.59 0.56 0.52 0.44 0.42 0.33 0.16 0.14 0.19 0.19
2.49 3.37 2.98 2.33 2.50 3.17 3.97 5.77 6.84 6.73 7.73 5.47 3.55 1.38 0.41 0.22 0.12 0.16 0.23 0.32 0.41 0.60 0.69 0.88 1.03 1.29 1.20 1.06 1.08 0.83 0.76 0.66 0.76 0.85 0.78 0.58 0.50 0.43 0.40 0.32 0.29 0.26 0.23 0.23 0.21 0.22 0.25 0.27 0.33 0.33 0.25 0.20 0.24 0.27
4.20 3.81 2.38 2.01 2.62 3.45 4.78 6.92 8.79 9.63 7.67 5.20 1.94 0.40 0.16 0.17 0.20 0.18 0.24 0.27 0.29 0.56 0.74 1.04 1.50 1.08 1.12 1.29 0.92 0.80 1.08 0.94 0.69 0.40 0.40 0.46 0.62 0.61 0.57 0.45 0.36 0.30 0.24 0.19 0.18 0.15 0.16 0.13 0.14 0.14 0.13 0.10 0.14 0.26
3.79 2.66 2.15 2.40 3.36 4.83 6.03 7.03 7.56 7.02 5.46 2.54 0.57 0.19 0.07 0.07 0.08 0.08 0.12 0.17 0.28 0.41 0.54 0.91 1.02 1.35 1.19 1.07 0.99 0.90 0.72 0.41 0.28 0.23 0.29 0.34 0.47 0.55 0.47 0.39 0.31 0.27 0.27 0.29 0.31 0.27 0.26 0.23 0.22 0.16 0.12 0.10 0.13 0.10
2.69 2.14 2.17 2.88 3.96 5.58 6.75 6.75 5.24 4.22 2.16 0.72 0.22 0.15 0.10 0.05 0.06 0.06 0.08 0.14 0.22 0.37 0.91 1.44 1.70 1.27 0.66 0.70 0.72 0.43 0.34 0.34 0.29 0.11 0.16 0.24 0.37 0.48 0.47 0.41 0.29 0.24 0.25 0.29 0.30 0.38 0.37 0.27 0.26 0.23 0.22 0.26 0.33 0.20
3.14 2.85 2.60 3.27 3.84 5.47 6.05 5.57 3.98 2.16 1.08 0.52 0.28 0.23 0.22 0.19 0.14 0.11 0.12 0.24 0.62 1.25 1.93 1.85 1.13 0.83 0.84 0.60 0.62 0.61 0.46 0.40 0.37 0.28 0.10 0.14 0.20 0.31 0.36 0.38 0.35 0.29 0.31 0.28 0.27 0.36 0.45 0.34 0.24 0.25 0.32 0.51 0.57 0.31
4.07 3.63 4.08 5.37 6.26 5.83 5.17 3.55 2.48 1.56 0.89 0.57 0.60 0.38 0.47 0.46 0.43 0.48 0.63 0.80 1.68 2.23 1.44 0.73 0.56 0.45 0.54 0.52 0.45 0.43 0.30 0.35 0.43 0.53 0.55 0.50 0.24 0.21 0.26 0.26 0.31 0.35 0.45 0.46 0.44 0.35 0.39 0.37 0.34 0.36 0.46 0.39 0.36 0.42
5.02 4.51 6.31 6.20 6.86 6.57 5.11 2.80 1.64 1.08 0.70 0.81 0.74 0.62 0.76 0.77 0.76 0.80 0.94 1.64 1.82 1.27 0.78 0.62 0.45 0.46 0.35 0.25 0.20 0.21 0.20 0.16 0.17 0.23 0.28 0.36 0.29 0.25 0.20 0.20 0.37 0.44 0.40 0.48 0.55 0.55 0.45 0.44 0.58 0.74 0.56 0.47 0.41 0.30
4.45 3.93 5.12 5.20 4.89 4.38 3.52 1.95 1.48 1.19 1.02 1.06 0.90 0.86 0.96 0.83 0.87 0.97 1.37 1.18 0.94 0.81 0.61 0.51 0.44 0.35 0.28 0.10 0.09 0.08 0.10 0.17 0.17 0.18 0.22 0.18 0.17 0.18 0.23 0.19 0.25 0.43 0.46 0.35 0.39 0.57 0.60 0.48 0.59 0.69 0.50 0.33 0.25 0.26
4.21 5.36 5.35 4.94 3.68 2.78 2.20 1.76 1.22 0.84 0.91 0.85 0.93 0.88 0.78 0.80 0.99 1.16 0.88 0.60 0.76 0.64 0.44 0.41 0.35 0.25 0.16 0.13 0.14 0.16 0.19 0.23 0.21 0.15 0.22 0.32 0.25 0.16 0.17 0.19 0.21 0.31 0.38 0.44 0.50 0.56 0.42 0.40 0.48 0.40 0.32 0.38 0.32 0.35
6.22 5.91 4.16 3.54 2.46 1.38 0.89 0.72 0.59 0.53 0.64 0.56 0.63 0.72 0.68 0.78 1.02 0.87 0.52 0.46 0.50 0.61 0.54 0.41 0.37 0.40 0.44 0.34 0.25 0.21 0.21 0.41 0.50 0.48 0.28 0.36 0.39 0.35 0.28 0.19 0.15 0.19 0.21 0.62 0.55 0.43 0.38 0.45 0.50 0.44 0.43 0.57 0.80 0.96
4.97 2.83 2.12 1.24 0.71 0.31 0.30 0.35 0.38 0.40 0.47 0.60 0.65 0.60 0.63 0.74 0.83 0.72 0.47 0.51 0.56 0.74 0.84 0.75 0.64 0.48 0.37 0.50 0.59 0.53 0.48 0.53 0.70 0.69 0.38 0.41 0.59 0.84 0.72 0.50 0.36 0.26 0.24 0.63 0.93 0.87 0.64 0.49 0.60 0.56 0.56 0.58 0.83 0.98
2.76 1.45 0.83 0.30 0.16 0.13 0.20 0.27 0.30 0.39 0.53 0.54 0.49 0.46 0.59 0.92 0.67 0.38 0.37 0.53 0.78 0.85 0.97 0.95 0.78 0.70 0.62 0.52 0.53 0.57 0.63 0.73 0.92 0.84 0.59 0.54 0.54 0.58 0.95 1.21 1.07 0.73 0.94 0.96 0.95 1.07 1.12 0.86 0.73 0.64 0.67 0.55 0.64 0.86
0.92 0.36 0.40 0.32 0.23 0.17 0.22 0.33 0.41 0.40 0.33 0.24 0.24 0.31 0.40 0.36 0.30 0.33 0.46 0.56 0.72 0.77 0.81 0.77 0.74 0.72 0.69 0.65 0.64 0.65 0.65 0.64 0.62 0.59 0.58 0.58 0.53 0.49 0.58 0.81 1.05 1.27 1.43 1.32 1.62 1.53 1.25 1.25 1.07 0.90 0.78 0.72 0.58 0.60
0.39 0.27 0.19 0.24 0.26 0.33 0.37 0.34 0.30 0.26 0.21 0.20 0.22 0.26 0.29 0.28 0.37 0.44 0.49 0.52 0.61 0.66 0.69 0.65 0.61 0.59 0.61 0.64 0.65 0.68 0.73 0.79 0.87 0.76 0.51 0.44 0.43 0.51 0.64 0.90 1.03 0.96 0.95 0.92 0.83 1.12 1.40 1.81 1.84 1.66 1.23 0.98 0.81 0.79
0.35 0.28 0.28 0.28 0.24 0.25 0.21 0.22 0.21 0.22 0.19 0.25 0.30 0.31 0.32 0.41 0.51 0.52 0.54 0.59 0.59 0.60 0.67 0.74 0.72 0.65 0.62 0.62 0.63 0.59 0.62 0.72 1.07 1.52 1.59 1.04 0.87 0.85 0.98 1.14 1.08 0.91 0.93 0.94 0.86 0.78 0.85 0.93 0.87 0.86 0.89 0.89 0.92 0.93
0.32 0.30 0.34 0.29 0.29 0.27 0.30 0.35 0.40 0.35 0.36 0.38 0.38 0.36 0.39 0.46 0.57 0.57 0.51 0.54 0.52 0.52 0.61 0.71 0.65 0.66 0.74 0.75 0.80 0.83 0.69 0.56 0.68 0.96 1.29 1.45 1.30 1.27 1.34 1.37 1.21 1.15 1.11 1.06 0.98 0.92 0.87 0.79 0.76 0.78 0.78 0.78 0.77 0.84
0.41 0.44 0.34 0.32 0.34 0.38 0.45 0.44 0.44 0.45 0.48 0.48 0.46 0.46 0.51 0.56 0.64 0.56 0.43 0.47 0.47 0.52 0.63 0.68 0.71 0.69 0.71 0.79 0.81 0.95 1.17 1.02 0.91 1.09 1.36 1.61 1.67 1.66 1.79 1.34 1.20 1.20 1.15 1.10 1.06 1.06 1.01 1.04 1.01 1.01 0.98 0.89 0.85 0.80
0.58 0.58 0.54 0.50 0.46 0.45 0.41 0.44 0.47 0.46 0.42 0.40 0.44 0.43 0.44 0.44 0.44 0.35 0.35 0.45 0.53 0.63 0.66 0.65 0.68 0.71 0.71 0.70 0.69 0.70 0.80 0.90 1.04 1.24 1.41 1.55 1.72 2.01 1.79 1.22 1.14 1.12 1.13 1.13 1.13 1.16 1.16 1.13 1.06 1.02 1.01 0.98 0.91 0.86